Terminal Aerodrome Forecast
Issued by NWS St Louis, MO

Home | Current Version | Previous Version | Text Only | Print | Product List | Glossary On
Versions: 1 2 3 4 5 6 7 8 9 10 11 12 13 14 15 16 17 18 19 20 21 22 23 24 25 26 27 28 29 30
000
FTUS43 KLSX 282000 AAA
TAFSTL
TAF AMD
KSTL 282054Z 2821/2924 16010KT P6SM BKN250
     FM290300 18010KT P6SM BKN250 WS020/22040KT
     FM290900 18010KT P6SM OVC015 WS020/22040KT
     FM291500 20012KT P6SM OVC015
     FM292200 20010KT P6SM BKN015=

USA.gov is the U.S. government's official web portal to all federal, state and local government web resources and services.